Location: New Frontier Mobile Home Park
(32.8448°N, 116.9675°W)
Time: 22:46:58
(UTC+00:00)

Cosmos 1076 Rocket - Pass Details

Date: 14 July 2020
Orbit: 589 x 613 km, 82.5° (Epoch: 05 August)

Event Time Altitude Azimuth Distance (km) Brightness Sun altitude
Exits shadow 05:33:35 48° 266° (W) 785 4.2 -26.1°
Maximum altitude 05:33:50 48° 278° (W) 778 4.2 -26.1°
Drops below altitude 10° 05:37:58 10° 354° (N) 1,930 6.8 -26.6°
Sets 05:40:14 0° 360° (N) 2,832 7.8 -26.9°
